Time,TemperatureF,DewpointF,PressureIn,WindDirection,WindDirectionDegrees,WindSpeedMPH,WindSpeedGustMPH,Humidity,HourlyPrecipIn,Conditions,Clouds,dailyrainin,SolarRadiationWatts/m^2,SoftwareType,DateUTC
2013-01-29 00:01:00,23.0,23.0,-100.00,South,181,0.0,0.0,100,0.00,,,0.00,0.000000,,2013-01-29 08:01:00,
2013-01-29 00:11:00,23.0,23.0,-100.00,South,181,0.0,0.0,100,0.00,,,0.00,0.000000,,2013-01-29 08:11:00,
2013-01-29 00:21:00,23.0,23.0,-100.00,South,181,0.0,0.0,100,0.00,,,0.00,0.000000,,2013-01-29 08:21:00,
2013-01-29 00:42:00,23.0,23.0,-100.00,SSE,151,0.0,0.0,100,0.00,,,0.00,0.000000,,2013-01-29 08:42:00,
2013-01-29 00:52:00,23.0,23.0,-100.00,SSE,151,0.0,0.0,100,0.00,,,0.00,0.000000,,2013-01-29 08:52:00,
2013-01-29 01:01:00,23.0,23.0,-100.00,SSE,151,0.0,0.0,100,0.00,,,0.00,0.000000,,2013-01-29 09:01:00,
2013-01-29 01:11:00,23.0,23.0,-100.00,SSE,151,0.0,0.0,100,0.00,,,0.00,0.000000,,2013-01-29 09:11:00,
2013-01-29 01:21:00,23.0,23.0,-100.00,SSE,151,0.0,0.0,100,0.00,,,0.00,0.000000,,2013-01-29 09:21:00,
2013-01-29 01:42:00,24.0,24.0,-100.00,SW,235,0.0,0.0,98,0.00,,,0.00,0.000000,,2013-01-29 09:42:00,
2013-01-29 01:52:00,24.0,24.0,-100.00,SW,235,0.0,0.0,98,0.00,,,0.00,0.000000,,2013-01-29 09:52:00,
2013-01-29 02:01:00,24.0,24.0,-100.00,SW,235,0.0,0.0,98,0.00,,,0.00,0.000000,,2013-01-29 10:01:00,
2013-01-29 02:11:00,24.0,24.0,-100.00,SW,235,0.0,0.0,98,0.00,,,0.00,0.000000,,2013-01-29 10:11:00,
2013-01-29 02:21:00,24.0,24.0,-100.00,SW,235,0.0,0.0,98,0.00,,,0.00,0.000000,,2013-01-29 10:21:00,
2013-01-29 02:42:00,25.0,21.0,-100.00,SW,232,0.0,0.0,85,0.00,,,0.00,0.000000,,2013-01-29 10:42:00,
2013-01-29 02:52:00,25.0,21.0,-100.00,SW,232,0.0,0.0,85,0.00,,,0.00,0.000000,,2013-01-29 10:52:00,
2013-01-29 03:01:00,25.0,21.0,-100.00,SW,232,0.0,0.0,85,0.00,,,0.00,0.000000,,2013-01-29 11:01:00,
2013-01-29 03:11:00,25.0,21.0,-100.00,SW,232,0.0,0.0,85,0.00,,,0.00,0.000000,,2013-01-29 11:11:00,
2013-01-29 03:21:00,25.0,21.0,-100.00,SW,232,0.0,0.0,85,0.00,,,0.00,0.000000,,2013-01-29 11:21:00,
2013-01-29 03:42:00,26.0,25.0,-100.00,WNW,300,0.0,0.0,96,0.00,,,0.00,0.000000,,2013-01-29 11:42:00,
2013-01-29 03:52:00,26.0,25.0,-100.00,WNW,300,0.0,0.0,96,0.00,,,0.00,0.000000,,2013-01-29 11:52:00,
2013-01-29 04:02:00,26.0,25.0,-100.00,WNW,300,0.0,0.0,96,0.00,,,0.00,0.000000,,2013-01-29 12:02:00,
2013-01-29 04:12:00,26.0,25.0,-100.00,WNW,300,0.0,0.0,96,0.00,,,0.00,0.000000,,2013-01-29 12:12:00,
2013-01-29 04:21:00,26.0,25.0,-100.00,WNW,300,0.0,0.0,96,0.00,,,0.00,0.000000,,2013-01-29 12:21:00,
2013-01-29 04:43:00,25.0,25.0,-100.00,WNW,302,0.0,0.0,98,0.00,,,0.00,0.000000,,2013-01-29 12:43:00,
2013-01-29 04:52:00,25.0,25.0,-100.00,WNW,302,0.0,0.0,98,0.00,,,0.00,0.000000,,2013-01-29 12:52:00,
2013-01-29 05:01:00,25.0,25.0,-100.00,WNW,302,0.0,0.0,98,0.00,,,0.00,0.000000,,2013-01-29 13:01:00,
2013-01-29 05:11:00,25.0,25.0,-100.00,WNW,302,0.0,0.0,98,0.00,,,0.00,0.000000,,2013-01-29 13:11:00,
2013-01-29 05:22:00,25.0,25.0,-100.00,WNW,302,0.0,0.0,98,0.00,,,0.00,0.000000,,2013-01-29 13:22:00,
2013-01-29 05:43:00,27.0,23.0,-100.00,WSW,242,0.0,0.0,86,0.00,,,0.00,0.000000,,2013-01-29 13:43:00,
2013-01-29 05:52:00,27.0,23.0,-100.00,WSW,242,0.0,0.0,86,0.00,,,0.00,0.000000,,2013-01-29 13:52:00,
2013-01-29 06:02:00,27.0,23.0,-100.00,WSW,242,0.0,0.0,86,0.00,,,0.00,0.000000,,2013-01-29 14:02:00,
2013-01-29 06:12:00,27.0,23.0,-100.00,WSW,242,0.0,0.0,86,0.00,,,0.00,0.000000,,2013-01-29 14:12:00,
2013-01-29 06:21:00,27.0,23.0,-100.00,WSW,242,0.0,0.0,86,0.00,,,0.00,0.000000,,2013-01-29 14:21:00,
2013-01-29 06:43:00,28.0,23.0,-100.00,South,181,0.0,0.0,80,0.00,,,0.00,0.000000,,2013-01-29 14:43:00,
2013-01-29 06:52:00,28.0,23.0,-100.00,South,181,0.0,0.0,80,0.00,,,0.00,0.000000,,2013-01-29 14:52:00,
2013-01-29 07:02:00,28.0,23.0,-100.00,South,181,0.0,0.0,80,0.00,,,0.00,0.000000,,2013-01-29 15:02:00,
2013-01-29 07:11:00,28.0,23.0,-100.00,South,181,0.0,0.0,80,0.00,,,0.00,0.000000,,2013-01-29 15:11:00,
2013-01-29 07:21:00,28.0,23.0,-100.00,South,181,0.0,0.0,80,0.00,,,0.00,0.000000,,2013-01-29 15:21:00,
2013-01-29 07:43:00,29.0,22.0,-100.00,SW,233,0.0,0.0,76,0.00,,,0.00,11.000000,,2013-01-29 15:43:00,
2013-01-29 07:53:00,29.0,22.0,-100.00,SW,233,0.0,0.0,76,0.00,,,0.00,11.000000,,2013-01-29 15:53:00,
2013-01-29 08:02:00,29.0,22.0,-100.00,SW,233,0.0,0.0,76,0.00,,,0.00,11.000000,,2013-01-29 16:02:00,
2013-01-29 08:12:00,29.0,22.0,-100.00,SW,233,0.0,0.0,76,0.00,,,0.00,11.000000,,2013-01-29 16:12:00,
2013-01-29 08:21:00,29.0,22.0,-100.00,SW,233,0.0,0.0,76,0.00,,,0.00,11.000000,,2013-01-29 16:21:00,
2013-01-29 08:43:00,32.0,23.0,-100.00,SW,231,2.0,15.0,70,0.00,,,0.00,52.000000,,2013-01-29 16:43:00,
2013-01-29 08:53:00,32.0,23.0,-100.00,SW,231,2.0,15.0,70,0.00,,,0.00,52.000000,,2013-01-29 16:53:00,
2013-01-29 09:02:00,32.0,23.0,-100.00,SW,231,2.0,15.0,70,0.00,,,0.00,52.000000,,2013-01-29 17:02:00,
2013-01-29 09:12:00,32.0,23.0,-100.00,SW,231,2.0,15.0,70,0.00,,,0.00,52.000000,,2013-01-29 17:12:00,
2013-01-29 09:21:00,32.0,23.0,-100.00,SW,231,2.0,15.0,70,0.00,,,0.00,52.000000,,2013-01-29 17:21:00,
2013-01-29 09:42:00,37.0,24.0,-100.00,South,190,3.0,16.0,60,0.00,,,0.00,171.000000,,2013-01-29 17:42:00,
2013-01-29 09:52:00,37.0,24.0,-100.00,South,190,3.0,16.0,60,0.00,,,0.00,171.000000,,2013-01-29 17:52:00,
2013-01-29 10:03:00,37.0,24.0,-100.00,South,190,3.0,16.0,60,0.00,,,0.00,171.000000,,2013-01-29 18:03:00,
2013-01-29 10:12:00,37.0,24.0,-100.00,South,190,3.0,16.0,60,0.00,,,0.00,171.000000,,2013-01-29 18:12:00,
2013-01-29 10:21:00,37.0,24.0,-100.00,South,190,3.0,16.0,60,0.00,,,0.00,171.000000,,2013-01-29 18:21:00,
2013-01-29 10:42:00,42.0,27.0,-100.00,South,189,3.0,14.0,56,0.00,,,0.00,559.000000,,2013-01-29 18:42:00,
2013-01-29 10:52:00,42.0,27.0,-100.00,South,189,3.0,14.0,56,0.00,,,0.00,559.000000,,2013-01-29 18:52:00,
2013-01-29 11:02:00,42.0,27.0,-100.00,South,189,3.0,14.0,56,0.00,,,0.00,559.000000,,2013-01-29 19:02:00,
2013-01-29 11:11:00,42.0,27.0,-100.00,South,189,3.0,14.0,56,0.00,,,0.00,559.000000,,2013-01-29 19:11:00,
2013-01-29 11:22:00,42.0,27.0,-100.00,South,189,3.0,14.0,56,0.00,,,0.00,559.000000,,2013-01-29 19:22:00,
2013-01-29 11:42:00,48.0,28.0,-100.00,WSW,239,1.0,7.0,45,0.00,,,0.00,701.000000,,2013-01-29 19:42:00,
2013-01-29 11:52:00,48.0,28.0,-100.00,WSW,239,1.0,7.0,45,0.00,,,0.00,701.000000,,2013-01-29 19:52:00,
2013-01-29 12:02:00,48.0,28.0,-100.00,WSW,239,1.0,7.0,45,0.00,,,0.00,701.000000,,2013-01-29 20:02:00,
2013-01-29 12:42:00,52.0,31.0,-100.00,WSW,246,2.0,8.0,44,0.00,,,0.00,739.000000,,2013-01-29 20:42:00,
2013-01-29 12:53:00,52.0,31.0,-100.00,WSW,246,2.0,8.0,44,0.00,,,0.00,739.000000,,2013-01-29 20:53:00,
2013-01-29 13:42:00,51.0,31.0,-100.00,NW,324,5.0,15.0,47,-99.99,,,0.00,747.000000,,2013-01-29 21:42:00,
2013-01-29 13:53:00,51.0,31.0,-100.00,NW,324,5.0,15.0,47,-99.99,,,0.00,747.000000,,2013-01-29 21:53:00,
2013-01-29 14:02:00,51.0,31.0,-100.00,NW,324,5.0,15.0,47,-99.99,,,0.00,747.000000,,2013-01-29 22:02:00,
2013-01-29 14:12:00,51.0,31.0,-100.00,NW,324,5.0,15.0,47,-99.99,,,0.00,747.000000,,2013-01-29 22:12:00,
2013-01-29 14:21:00,51.0,31.0,-100.00,NW,324,5.0,15.0,47,-99.99,,,0.00,747.000000,,2013-01-29 22:21:00,
2013-01-29 14:42:00,48.0,29.0,-100.00,NW,317,6.0,17.0,48,0.00,,,0.00,445.000000,,2013-01-29 22:42:00,
2013-01-29 14:53:00,48.0,29.0,-100.00,NW,317,6.0,17.0,48,0.00,,,0.00,445.000000,,2013-01-29 22:53:00,
2013-01-29 15:02:00,48.0,29.0,-100.00,NW,317,6.0,17.0,48,0.00,,,0.00,445.000000,,2013-01-29 23:02:00,
2013-01-29 15:11:00,48.0,29.0,-100.00,NW,317,6.0,17.0,48,0.00,,,0.00,445.000000,,2013-01-29 23:11:00,
2013-01-29 15:21:00,48.0,29.0,-100.00,NW,317,6.0,17.0,48,0.00,,,0.00,445.000000,,2013-01-29 23:21:00,
2013-01-29 15:42:00,52.0,36.0,-100.00,SW,224,3.0,11.0,55,0.00,,,0.00,481.000000,,2013-01-29 23:42:00,
2013-01-29 15:53:00,52.0,36.0,-100.00,SW,224,3.0,11.0,55,0.00,,,0.00,481.000000,,2013-01-29 23:53:00,
2013-01-29 16:02:00,52.0,36.0,-100.00,SW,224,3.0,11.0,55,0.00,,,0.00,481.000000,,2013-01-30 00:02:00,
2013-01-29 16:11:00,52.0,36.0,-100.00,SW,224,3.0,11.0,55,0.00,,,0.00,481.000000,,2013-01-30 00:11:00,
2013-01-29 16:21:00,52.0,36.0,-100.00,SW,224,3.0,11.0,55,0.00,,,0.00,481.000000,,2013-01-30 00:21:00,
2013-01-29 16:43:00,44.0,32.0,-100.00,WNW,300,2.0,11.0,63,0.00,,,0.00,189.000000,,2013-01-30 00:43:00,
2013-01-29 16:53:00,44.0,32.0,-100.00,WNW,300,2.0,11.0,63,0.00,,,0.00,189.000000,,2013-01-30 00:53:00,
2013-01-29 17:01:00,44.0,32.0,-100.00,WNW,300,2.0,11.0,63,0.00,,,0.00,189.000000,,2013-01-30 01:01:00,
2013-01-29 17:11:00,44.0,32.0,-100.00,WNW,300,2.0,11.0,63,0.00,,,0.00,189.000000,,2013-01-30 01:11:00,
2013-01-29 17:22:00,44.0,32.0,-100.00,WNW,300,2.0,11.0,63,0.00,,,0.00,189.000000,,2013-01-30 01:22:00,
2013-01-29 17:43:00,36.0,30.0,-100.00,NE,36,0.0,7.0,78,0.00,,,0.00,17.000000,,2013-01-30 01:43:00,
2013-01-29 17:52:00,36.0,30.0,-100.00,NE,36,0.0,7.0,78,0.00,,,0.00,17.000000,,2013-01-30 01:52:00,
2013-01-29 18:02:00,36.0,30.0,-100.00,NE,36,0.0,7.0,78,0.00,,,0.00,17.000000,,2013-01-30 02:02:00,
2013-01-29 18:12:00,36.0,30.0,-100.00,NE,36,0.0,7.0,78,0.00,,,0.00,17.000000,,2013-01-30 02:12:00,
2013-01-29 18:21:00,36.0,30.0,-100.00,NE,36,0.0,7.0,78,0.00,,,0.00,17.000000,,2013-01-30 02:21:00,
2013-01-29 18:42:00,35.0,30.0,-100.00,ESE,120,0.0,0.0,81,0.00,,,0.00,0.000000,,2013-01-30 02:42:00,
2013-01-29 18:53:00,35.0,30.0,-100.00,ESE,120,0.0,0.0,81,0.00,,,0.00,0.000000,,2013-01-30 02:53:00,
2013-01-29 19:02:00,35.0,30.0,-100.00,ESE,120,0.0,0.0,81,0.00,,,0.00,0.000000,,2013-01-30 03:02:00,
2013-01-29 19:11:00,35.0,30.0,-100.00,ESE,120,0.0,0.0,81,0.00,,,0.00,0.000000,,2013-01-30 03:11:00,
2013-01-29 19:21:00,35.0,30.0,-100.00,ESE,120,0.0,0.0,81,0.00,,,0.00,0.000000,,2013-01-30 03:21:00,
2013-01-29 19:42:00,41.0,27.0,-100.00,North,3,0.0,7.0,57,0.00,,,0.00,0.000000,,2013-01-30 03:42:00,
2013-01-29 19:52:00,41.0,27.0,-100.00,North,3,0.0,7.0,57,0.00,,,0.00,0.000000,,2013-01-30 03:52:00,
2013-01-29 20:02:00,41.0,27.0,-100.00,North,3,0.0,7.0,57,0.00,,,0.00,0.000000,,2013-01-30 04:02:00,
2013-01-29 20:11:00,41.0,27.0,-100.00,North,3,0.0,7.0,57,0.00,,,0.00,0.000000,,2013-01-30 04:11:00,
2013-01-29 20:21:00,41.0,27.0,-100.00,North,3,0.0,7.0,57,0.00,,,0.00,0.000000,,2013-01-30 04:21:00,
2013-01-29 20:42:00,38.0,26.0,-100.00,North,7,0.0,6.0,62,0.00,,,0.00,0.000000,,2013-01-30 04:42:00,
2013-01-29 20:52:00,38.0,26.0,-100.00,North,7,0.0,6.0,62,0.00,,,0.00,0.000000,,2013-01-30 04:52:00,
2013-01-29 21:03:00,38.0,26.0,-100.00,North,7,0.0,6.0,62,0.00,,,0.00,0.000000,,2013-01-30 05:03:00,
2013-01-29 21:11:00,38.0,26.0,-100.00,North,7,0.0,6.0,62,0.00,,,0.00,0.000000,,2013-01-30 05:11:00,
2013-01-29 21:21:00,38.0,26.0,-100.00,North,7,0.0,6.0,62,0.00,,,0.00,0.000000,,2013-01-30 05:21:00,
2013-01-29 21:43:00,36.0,27.0,-100.00,SE,140,0.0,6.0,70,0.00,,,0.00,0.000000,,2013-01-30 05:43:00,
2013-01-29 21:52:00,36.0,27.0,-100.00,SE,140,0.0,6.0,70,0.00,,,0.00,0.000000,,2013-01-30 05:52:00,
2013-01-29 22:02:00,36.0,27.0,-100.00,SE,140,0.0,6.0,70,0.00,,,0.00,0.000000,,2013-01-30 06:02:00,
2013-01-29 22:11:00,36.0,27.0,-100.00,SE,140,0.0,6.0,70,0.00,,,0.00,0.000000,,2013-01-30 06:11:00,
2013-01-29 22:21:00,36.0,27.0,-100.00,SE,140,0.0,6.0,70,0.00,,,0.00,0.000000,,2013-01-30 06:21:00,
2013-01-29 22:42:00,37.0,28.0,-100.00,NNE,30,1.0,8.0,69,0.00,,,0.00,0.000000,,2013-01-30 06:42:00,
2013-01-29 22:52:00,37.0,28.0,-100.00,NNE,30,1.0,8.0,69,0.00,,,0.00,0.000000,,2013-01-30 06:52:00,
2013-01-29 23:01:00,37.0,28.0,-100.00,NNE,30,1.0,8.0,69,0.00,,,0.00,0.000000,,2013-01-30 07:01:00,
2013-01-29 23:11:00,37.0,28.0,-100.00,NNE,30,1.0,8.0,69,0.00,,,0.00,0.000000,,2013-01-30 07:11:00,
2013-01-29 23:21:00,37.0,28.0,-100.00,NNE,30,1.0,8.0,69,0.00,,,0.00,0.000000,,2013-01-30 07:21:00,
2013-01-29 23:42:00,41.0,29.0,-100.00,NW,325,7.0,16.0,62,0.00,,,0.00,0.000000,,2013-01-30 07:42:00,
2013-01-29 23:52:00,41.0,29.0,-100.00,NW,325,7.0,16.0,62,0.00,,,0.00,0.000000,,2013-01-30 07:52:00,